Theta_e
293 295 297 299 300 302 305 308 308 307 307 307 307 305 310 306 302 300 300 299 299 301 301 300 300 300 300 300 300 300 299 300 301 300 297 297 297 297 297 297 297 297 296
291 292 294 296 298 299 302 306 307 307 307 306 306 306 304 307 304 300 300 299 299 301 301 300 300 300 300 300 299 299 298 298 299 298 297 296 296 296 296 297 297 296 296
290 291 292 293 295 298 298 301 305 306 306 306 305 305 305 302 302 303 300 298 299 301 301 300 300 300 300 299 298 298 297 297 296 296 296 295 295 295 296 297 297 296 296
288 289 290 291 293 295 297 298 299 304 305 305 305 305 304 303 301 300 299 298 299 300 301 300 299 299 299 298 298 297 297 296 296 295 295 295 295 295 295 296 297 296 296
287 288 288 289 290 292 294 297 297 299 303 304 304 304 304 303 302 300 299 298 298 300 301 300 299 299 298 297 297 296 295 295 295 295 295 294 294 294 295 295 296 297 296
287 287 287 288 289 290 292 294 297 297 300 303 304 304 304 303 302 300 298 298 298 300 300 300 299 298 297 296 295 295 294 294 294 294 294 294 294 294 294 294 295 296 296
286 286 287 287 287 288 290 292 295 297 297 301 302 303 303 303 302 300 298 297 297 299 300 300 299 298 296 295 294 294 294 294 293 293 293 293 293 293 293 293 294 294 296
286 286 286 286 286 287 288 290 292 296 296 298 301 302 302 303 301 300 298 297 297 298 299 299 299 297 295 293 293 293 293 293 293 293 293 293 292 292 292 293 293 293 295
286 286 286 286 286 286 287 288 290 293 296 296 299 300 301 302 301 299 298 297 297 298 298 298 298 296 294 292 292 292 292 293 293 293 293 292 292 291 291 292 292 293 293
286 286 286 286 285 286 286 287 289 291 294 295 296 298 300 301 300 299 298 297 296 297 298 298 297 296 293 291 291 292 292 292 292 292 292 292 291 291 291 291 292 292 293
286 286 286 286 286 286 286 286 288 289 292 294 295 295 298 299 300 299 298 297 296 297 297 298 297 296 292 291 291 291 291 291 291 292 292 292 291 291 291 291 291 291 293
285 286 286 286 286 286 286 286 286 288 291 293 293 293 294 298 298 298 297 297 296 296 297 297 296 295 292 291 290 290 291 291 291 291 292 291 291 291 290 290 290 290 292
285 285 285 285 286 285 285 286 286 287 289 291 291 292 292 295 297 298 297 297 296 296 296 296 295 294 291 289 289 290 291 291 291 291 292 291 290 291 290 290 290 290 291
286 286 285 285 285 285 285 285 285 286 288 289 290 291 292 293 295 296 297 296 296 295 295 296 294 292 290 289 289 289 290 290 291 291 291 290 291 290 290 290 290 290 291
286 286 285 285 285 285 285 285 285 286 287 289 289 290 291 292 294 295 297 297 297 296 295 295 292 290 289 288 288 289 289 290 290 290 291 291 290 290 290 290 290 289 290
285 285 285 285 285 285 285 285 285 286 287 289 290 290 291 292 293 295 296 297 296 296 295 294 291 290 289 288 289 289 289 290 290 290 291 291 291 290 290 290 289 289 289
285 285 285 284 284 284 284 284 285 286 287 289 289 290 291 291 292 294 295 296 295 295 294 294 292 290 290 289 289 290 290 290 290 290 290 290 290 290 290 290 289 289 289
284 284 284 284 284 283 284 284 285 286 287 288 289 290 291 291 291 291 294 294 291 292 294 294 293 291 290 289 289 290 290 290 290 290 290 290 290 290 291 291 290 288 287
282 283 283 283 283 283 283 284 285 285 286 287 287 289 290 291 291 290 292 292 291 293 294 294 293 291 290 290 290 290 290 290 290 290 290 290 290 290 291 291 289 288 287
281 281 282 282 282 283 283 284 284 285 286 286 287 288 290 290 290 290 290 289 291 294 295 295 294 292 291 290 290 289 289 289 289 289 290 290 290 290 290 291 291 289 288
279 279 280 280 281 282 283 283 284 284 285 285 287 288 290 290 291 290 290 288 291 294 295 295 295 294 291 290 289 289 289 289 289 289 289 290 289 289 289 289 290 289 287
276 277 278 279 280 281 282 282 283 284 285 285 287 288 289 290 291 291 290 289 292 293 295 295 295 294 292 292 290 292 293 289 289 289 289 290 289 289 288 289 289 289 288
275 276 277 279 279 280 281 282 283 284 284 286 287 288 289 289 290 290 290 291 292 293 295 295 295 294 296 293 294 296 292 290 289 290 291 291 289 289 288 288 289 289 289
275 276 277 277 279 279 280 282 283 284 285 286 287 288 288 289 289 289 290 291 293 292 293 293 294 293 294 293 296 295 293 292 291 291 290 289 289 289 288 288 288 289 288
274 275 276 276 276 278 279 280 282 283 284 286 287 287 288 288 289 289 289 289 290 291 292 293 293 293 293 294 294 294 294 294 290 290 289 291 289 288 288 289 287 289 287
273 274 274 275 276 277 278 279 280 281 283 284 285 286 287 287 288 288 288 288 288 289 290 290 290 291 291 291 291 292 292 292 292 292 293 291 288 287 288 288 286 287 287
Wind_Speed
16 16 15 14 12 13 15 16 16 17 16 16 17 23 24 25 26 25 22 20 18 17 15 15 15 16 17 16 16 16 17 17 13 14 10 7 4 3 4 5 6 7 8
16 15 16 15 15 14 14 16 18 18 18 17 17 19 25 24 26 25 22 20 18 15 14 14 14 14 16 16 16 15 13 13 13 12 11 7 5 4 3 3 4 5 6
18 17 16 16 16 15 15 16 19 20 20 20 18 19 22 26 27 24 23 21 18 14 12 11 11 13 15 16 15 15 14 13 12 10 10 7 6 5 3 2 1 3 4
20 20 20 17 18 19 17 17 18 21 22 22 20 19 20 23 25 26 25 22 19 15 11 10 11 12 14 16 15 15 13 12 11 10 9 7 5 4 3 1 1 1 1
21 22 22 21 19 20 20 19 18 20 23 23 22 21 21 23 23 26 25 24 20 16 13 12 11 13 15 15 14 13 12 11 11 10 9 7 5 3 2 1 2 3 2
19 21 23 23 23 21 22 21 19 19 21 24 24 23 23 23 23 24 25 24 21 19 16 14 14 15 16 16 15 15 13 11 11 10 8 7 5 4 2 1 1 3 3
19 21 22 23 22 23 23 24 22 19 21 23 25 25 25 24 23 25 25 25 23 21 19 17 17 17 16 17 16 15 14 13 12 10 8 6 5 3 2 1 1 0 1
20 21 23 24 24 23 24 25 25 22 20 23 25 26 26 27 24 26 26 26 25 23 21 19 17 17 17 17 16 15 14 14 12 11 9 7 5 3 2 1 1 2 1
18 20 23 24 25 25 24 24 25 26 23 22 25 27 27 28 27 26 28 28 27 25 23 21 19 18 18 18 17 15 14 14 13 10 9 8 6 4 1 0 1 2 2
18 19 20 24 26 26 26 26 25 26 26 24 25 27 28 29 28 28 29 29 29 28 26 24 22 21 22 20 18 16 15 14 13 12 11 9 7 5 3 1 0 1 2
20 20 21 23 25 26 27 28 27 26 27 25 24 26 29 31 30 30 30 31 30 29 28 27 26 26 24 21 19 18 15 15 15 14 12 10 8 6 4 2 1 1 2
22 22 23 24 26 26 28 29 29 28 27 25 24 25 29 32 31 32 31 30 30 29 29 27 25 25 25 23 22 21 21 19 17 15 13 11 9 7 5 3 2 0 1
24 24 24 26 26 27 29 30 31 29 29 26 25 27 29 31 33 32 32 32 31 30 28 26 24 25 25 25 24 23 22 20 18 17 14 12 11 9 6 4 3 2 1
26 27 28 30 29 29 29 30 30 31 29 27 26 29 29 30 34 33 35 35 34 32 30 28 27 27 26 26 26 25 22 21 18 15 14 14 12 9 7 5 4 3 2
29 31 32 33 33 33 32 31 32 31 30 27 29 29 30 32 33 33 36 40 39 36 34 32 32 32 31 31 30 27 25 24 22 21 18 15 13 11 9 7 5 4 4
33 34 36 35 35 36 36 36 32 33 31 30 26 30 30 27 26 29 34 38 38 39 38 36 36 36 36 35 34 31 29 26 23 21 18 16 14 12 10 8 7 6 6
37 39 40 38 38 39 37 36 37 34 31 28 27 28 29 25 24 26 30 35 39 41 41 39 39 39 39 37 35 33 30 27 24 22 19 18 17 15 12 10 9 8 7
42 43 44 41 40 40 36 36 34 34 36 31 24 27 28 26 25 25 28 33 40 43 39 40 41 41 38 36 35 33 31 27 26 24 22 20 19 16 14 12 10 9 8
42 43 43 40 39 38 36 37 34 34 33 31 26 26 25 27 26 27 27 38 45 45 40 41 40 38 37 35 33 32 30 28 27 25 24 22 20 19 17 15 13 12 11
40 41 40 39 39 38 36 36 34 33 32 31 28 29 25 27 31 33 32 39 43 43 41 40 40 40 38 34 33 32 31 31 29 28 25 23 21 20 18 17 15 13 11
35 36 35 35 36 35 35 34 32 31 31 29 30 29 27 28 35 36 36 41 41 42 40 40 40 40 37 33 32 34 33 32 31 30 28 25 24 23 20 19 17 15 15
32 33 32 32 31 32 32 30 29 29 29 27 30 28 26 26 32 38 37 39 40 39 39 39 40 38 37 37 38 38 33 31 33 32 28 27 26 24 23 21 20 19 18
27 27 27 27 27 27 27 26 27 27 28 28 28 27 26 30 33 37 39 39 39 38 37 39 38 38 37 37 36 37 33 33 31 28 31 31 29 27 25 24 22 21 19
20 21 21 21 20 21 21 21 22 24 26 27 27 27 26 31 33 34 35 37 37 37 35 33 34 36 34 36 33 33 38 36 32 32 33 31 31 29 27 25 24 20 19
12 13 14 16 17 18 18 19 21 22 24 25 25 25 26 30 31 30 31 32 30 29 29 29 31 33 33 32 31 32 33 35 33 34 33 32 31 31 29 27 26 23 22
8 9 11 12 13 14 15 17 19 21 22 23 24 25 26 27 27 27 26 26 26 26 25 25 25 25 26 27 26 26 27 28 30 31 32 31 33 33 33 30 27 26 24
Wind_Direction
360 355 353 350 326 295 282 267 252 248 250 259 259 256 236 257 254 252 256 258 264 267 268 262 253 244 237 229 221 217 217 214 214 202 207 195 153 120 69 54 46 37 35
352 347 339 338 337 319 288 274 264 248 245 251 254 253 247 239 253 248 252 257 261 264 268 261 250 238 229 220 214 211 206 203 206 200 190 177 154 135 98 74 59 46 38
341 337 333 326 328 326 313 282 265 259 250 245 247 248 250 247 245 249 252 250 254 256 260 254 244 229 218 213 209 207 203 198 190 191 184 169 153 142 128 109 81 69 45
337 333 333 330 325 324 319 307 278 259 254 248 242 244 247 247 244 243 245 246 247 245 245 239 228 222 213 209 205 203 200 196 188 186 178 164 144 139 136 188 196 162 35
335 332 331 332 327 319 319 313 297 267 253 249 245 240 238 240 239 240 240 242 240 238 230 223 215 210 205 205 203 200 193 190 188 186 173 159 152 146 157 198 227 217 245
324 323 327 329 329 323 317 316 309 285 256 249 247 243 238 237 235 235 236 240 238 233 226 219 217 212 207 202 197 196 193 190 188 182 171 160 158 156 149 166 213 237 250
319 317 319 324 328 326 320 316 314 300 268 249 244 242 239 234 234 234 233 235 234 232 226 220 219 216 211 205 197 195 194 191 185 179 171 157 156 152 147 115 21 326 134
311 311 313 318 323 328 326 319 315 307 286 253 244 240 239 234 231 234 232 231 232 230 226 224 221 218 214 206 200 197 194 192 190 187 181 177 170 156 133 88 350 6 46
307 307 311 315 319 323 325 323 316 309 300 274 247 240 237 233 232 231 231 229 227 226 225 223 219 215 212 210 204 201 200 196 194 191 186 179 174 172 160 138 337 343 3
299 306 313 317 319 320 321 322 317 310 303 289 259 241 236 234 232 233 231 229 227 224 222 221 216 214 212 211 209 205 205 202 197 192 187 185 182 178 182 184 181 348 359
288 295 303 311 318 320 315 316 316 309 301 293 277 249 238 232 231 232 232 230 228 225 223 221 217 213 212 208 206 204 200 200 196 194 190 186 182 182 181 179 174 24 50
281 287 294 299 305 312 312 310 313 310 299 292 281 265 244 234 230 231 230 229 229 228 225 223 220 218 216 210 204 201 203 200 198 196 192 187 186 189 188 191 189 198 65
280 286 289 291 296 303 306 308 308 310 297 290 281 270 257 239 232 229 227 228 224 224 223 222 220 217 215 209 203 204 205 203 201 199 194 190 192 194 194 199 198 203 159
282 289 290 289 291 296 299 302 303 305 298 287 280 270 263 251 235 226 223 221 222 219 217 215 212 213 211 209 205 208 204 205 204 200 195 196 196 194 198 201 202 202 183
280 286 289 288 288 290 293 296 298 299 297 280 276 272 264 257 243 231 223 219 218 214 213 210 205 205 205 205 206 208 205 203 201 200 201 197 197 198 201 202 202 201 188
273 280 284 284 284 287 290 291 292 295 295 279 263 263 264 262 256 233 226 223 223 218 212 209 206 207 206 206 206 206 206 206 204 204 203 201 201 201 202 203 206 203 190
272 276 279 279 282 286 289 290 294 292 292 272 259 253 254 254 249 238 222 222 223 222 215 211 210 211 210 208 209 210 209 206 205 207 205 205 204 204 202 203 207 207 200
268 272 274 275 279 282 284 285 287 290 290 280 258 252 246 242 242 239 223 216 216 224 219 213 213 213 213 211 211 210 210 207 208 206 208 208 208 208 208 207 206 203 203
263 265 268 272 274 277 279 279 281 282 278 269 263 254 242 236 234 234 223 214 211 217 211 213 216 216 216 214 212 212 210 208 209 209 209 210 211 211 207 203 204 205 207
259 261 264 267 270 273 274 274 276 276 269 259 252 251 246 230 224 223 220 211 210 216 211 212 212 215 216 213 211 210 209 207 208 210 211 213 216 213 210 210 212 212 211
259 259 260 263 265 268 269 270 271 267 261 253 247 245 240 234 224 222 219 208 211 213 211 210 213 215 212 210 208 208 209 208 210 213 212 214 218 215 211 211 210 207 208
260 261 261 261 263 263 264 266 263 258 250 246 244 240 236 233 227 221 218 211 210 210 209 210 214 214 210 209 206 208 206 212 213 213 211 218 219 216 214 213 211 208 211
258 259 260 260 259 259 258 257 253 245 243 240 237 235 228 223 221 220 217 212 209 205 207 210 212 212 210 212 217 210 208 217 215 212 218 221 218 216 216 215 213 210 214
258 257 258 255 254 255 254 250 246 243 237 232 229 225 220 212 212 213 212 211 208 208 209 209 211 211 215 214 219 218 212 206 211 218 222 220 220 217 215 216 215 210 215
253 252 253 252 248 245 241 235 227 218 211 210 208 207 204 200 202 205 205 204 203 201 201 202 206 211 215 217 217 214 216 208 207 211 213 216 217 215 215 217 214 212 213
248 241 235 231 225 217 209 201 193 186 183 180 178 177 177 179 182 184 186 188 188 188 189 191 193 197 199 200 202 204 205 208 213 216 217 212 210 208 212 213 210 211 213